Bay City, TX

3:20 PM CDT on July 27, 2017 (GMT -0500)
Bay City

Weather History for KBYY - June, 2013

Change the Weather History Date:

Wednesday, June 19, 2013

  Actual Average (KLBX) Record (KLBX)
Temperature  
Mean Temperature 84 °F -  
Max Temperature 95 °F 86 °F 95 °F (2017)
Min Temperature 74 °F 71 °F 64 °F (2001)
Cooling Degree Days 20    
Growing Degree Days 34 (Base 50)    
Moisture  
Dew Point 75 °F    
Average Humidity 76    
Maximum Humidity 100    
Minimum Humidity 45    
Precipitation  
Precipitation 0.00 in - - ()
Sea Level Pressure  
Sea Level Pressure 29.96 in    
Wind  
Wind Speed 6 mph (South)    
Max Wind Speed 15 mph    
Max Gust Speed 20 mph    
Visibility 10 miles    
Events      
Averages and records for this station are not official NWS values.
T = Trace of Precipitation, MM = Missing Value Source: NWS Daily Summary

Daily Weather History Graph

Daily Weather History Graph

Search for Another Location

Airport or City:

Trip Planner

Search our weather history database for the weather conditions in past years. The results will help you decide how hot, cold, wet, or windy it might be!

Date:

Astronomy

Jun. 19, 2013 Rise Set
Actual Time 6:25 AM CDT 8:24 PM CDT
Civil Twilight 5:57 AM CDT 8:51 PM CDT
Nautical Twilight 5:25 AM CDT 9:24 PM CDT
Astronomical Twilight 4:50 AM CDT 9:59 PM CDT
Moon 4:30 PM CDT (6/19) 2:55 AM CDT (6/19)
Length of Visible Light 14h 53m
Length of Day
13h 59m
Waxing Gibbous, 80% of the Moon is Illuminated
Jun 19
Waxing Gibbous
Jun 23
Full
Jun 29
Last Quarter
Jul 8
New
Jul 15
First Quarter

Hourly Weather History & Observations

Time (CDT) Temp. Heat Index Dew Point Humidity Pressure Visibility Wind Dir Wind Speed Gust Speed Precip Events Conditions
12:15 AM 78.3 °F - 78.3 °F 100% 29.95 in 10.0 mi SE 3.5 mph - N/A   Clear
12:35 AM 77.7 °F - 77.7 °F 100% 29.95 in 10.0 mi ESE 4.6 mph - N/A   Clear
12:55 AM 77.4 °F - 77.4 °F 100% 29.95 in 10.0 mi SE 4.6 mph - N/A   Clear
1:15 AM 77.4 °F - 77.4 °F 100% 29.95 in 10.0 mi SE 4.6 mph - N/A   Clear
1:35 AM 77.5 °F - 77.5 °F 100% 29.95 in 10.0 mi SSE 3.5 mph - N/A   Scattered Clouds
1:55 AM 77.7 °F - 77.7 °F 100% 29.94 in 10.0 mi SSE 4.6 mph - N/A   Clear
2:15 AM 77.7 °F - 77.7 °F 100% 29.94 in 10.0 mi South 5.8 mph - N/A   Clear
2:35 AM 77.9 °F - 77.9 °F 100% 29.93 in 10.0 mi South 6.9 mph - N/A   Clear
2:55 AM 77.9 °F - 77.9 °F 100% 29.92 in 10.0 mi South 6.9 mph - N/A   Clear
3:15 AM 77.7 °F - 77.7 °F 100% 29.92 in 10.0 mi South 5.8 mph - N/A   Scattered Clouds
3:35 AM 77.2 °F - 77.2 °F 100% 29.92 in 10.0 mi South 3.5 mph - N/A   Scattered Clouds
3:55 AM 76.6 °F - 76.6 °F 100% 29.92 in 10.0 mi SSW 3.5 mph - N/A   Clear
4:15 AM 76.5 °F - 76.5 °F 100% 29.93 in 10.0 mi Calm Calm - N/A   Clear
4:35 AM 76.3 °F - 76.3 °F 100% 29.93 in 10.0 mi Calm Calm - N/A   Scattered Clouds
4:55 AM 75.9 °F - 75.9 °F 100% 29.93 in 7.0 mi South 3.5 mph - N/A   Scattered Clouds
5:15 AM 75.7 °F - 75.7 °F 100% 29.93 in 10.0 mi Calm Calm - N/A   Scattered Clouds
5:35 AM 74.8 °F - 74.8 °F 100% 29.94 in 7.0 mi Calm Calm - N/A   Mostly Cloudy
5:55 AM 74.8 °F - 74.8 °F 100% 29.95 in 7.0 mi Calm Calm - N/A   Scattered Clouds
6:15 AM 74.7 °F - 74.7 °F 100% 29.95 in 5.0 mi Calm Calm - N/A   Scattered Clouds
6:35 AM 74.7 °F - 74.7 °F 100% 29.95 in 5.0 mi Calm Calm - N/A   Scattered Clouds
6:55 AM 74.7 °F - 74.7 °F 100% 29.95 in 4.0 mi Calm Calm - N/A   Scattered Clouds
7:15 AM 75.4 °F - 75.4 °F 100% 29.95 in 5.0 mi Calm Calm - N/A   Haze
7:35 AM 77.0 °F - 77.0 °F 100% 29.96 in 7.0 mi Calm Calm - N/A   Clear
7:55 AM 79.2 °F - 79.2 °F 100% 29.97 in 7.0 mi Calm Calm - N/A   Scattered Clouds
8:15 AM 80.8 °F 90.0 °F 80.8 °F 100% 29.98 in 10.0 mi South 3.5 mph - N/A   Scattered Clouds
8:35 AM 83.3 °F 96.4 °F 80.6 °F 92% 29.98 in 10.0 mi SW 4.6 mph - N/A   Clear
8:55 AM 84.4 °F 95.0 °F 77.7 °F 80% 29.98 in 10.0 mi SW 6.9 mph - N/A   Scattered Clouds
9:15 AM 85.5 °F 95.4 °F 76.5 °F 74% 29.99 in 10.0 mi SW 9.2 mph - N/A   Scattered Clouds
9:35 AM 86.7 °F 95.5 °F 74.7 °F 67% 29.99 in 10.0 mi South 10.4 mph - N/A   Clear
9:55 AM 88.0 °F 96.0 °F 73.6 °F 62% 29.98 in 10.0 mi SSW 11.5 mph - N/A   Clear
10:15 AM 88.9 °F 97.1 °F 73.2 °F 60% 29.98 in 10.0 mi SSW 11.5 mph - N/A   Scattered Clouds
10:35 AM 90.5 °F 98.6 °F 72.9 °F 56% 29.98 in 10.0 mi SSW 11.5 mph - N/A   Scattered Clouds
10:55 AM 91.6 °F 99.3 °F 72.5 °F 53% 29.98 in 10.0 mi SSW 9.2 mph - N/A   Scattered Clouds
11:15 AM 91.2 °F 99.1 °F 72.7 °F 54% 29.98 in 10.0 mi SSW 9.2 mph - N/A   Scattered Clouds
11:35 AM 91.4 °F 98.9 °F 72.3 °F 53% 29.98 in 10.0 mi South 10.4 mph - N/A   Mostly Cloudy
11:55 AM 93.6 °F 100.1 °F 70.7 °F 47% 29.98 in 10.0 mi SSW 11.5 mph 17.3 mph N/A   Scattered Clouds
12:15 PM 93.6 °F 99.0 °F 69.4 °F 45% 29.99 in 10.0 mi South 11.5 mph - N/A   Scattered Clouds
12:35 PM 93.4 °F 100.9 °F 71.4 °F 49% 29.98 in 10.0 mi South 9.2 mph 16.1 mph N/A   Mostly Cloudy
12:55 PM 93.6 °F 101.3 °F 71.6 °F 49% 29.98 in 10.0 mi SSW 11.5 mph - N/A   Mostly Cloudy
1:15 PM 94.5 °F 102.6 °F 72.0 °F 48% 29.97 in 10.0 mi South 9.2 mph 19.6 mph N/A   Scattered Clouds
1:35 PM 94.6 °F 102.4 °F 71.6 °F 47% 29.97 in 10.0 mi South 15.0 mph - N/A   Mostly Cloudy
1:55 PM 94.5 °F 102.0 °F 71.2 °F 47% 29.97 in 10.0 mi SSW 13.8 mph 17.3 mph N/A   Mostly Cloudy
2:15 PM 94.5 °F 101.4 °F 70.9 °F 46% 29.96 in 10.0 mi SW 10.4 mph 16.1 mph N/A   Mostly Cloudy
2:35 PM 94.8 °F 102.1 °F 71.2 °F 46% 29.96 in 10.0 mi South 10.4 mph 16.1 mph N/A   Scattered Clouds
2:55 PM 94.5 °F 102.6 °F 72.0 °F 48% 29.95 in 10.0 mi SSW 6.9 mph - N/A   Scattered Clouds
3:15 PM 95.4 °F 104.0 °F 72.1 °F 47% 29.95 in 10.0 mi South 11.5 mph 18.4 mph N/A   Scattered Clouds
3:35 PM 95.0 °F 103.8 °F 72.7 °F 48% 29.95 in 10.0 mi South 12.7 mph 18.4 mph N/A   Scattered Clouds
3:55 PM 93.7 °F 102.9 °F 73.0 °F 51% 29.95 in 10.0 mi SSW 12.7 mph 18.4 mph N/A   Scattered Clouds
4:15 PM 94.6 °F 104.4 °F 73.4 °F 50% 29.95 in 10.0 mi SSW 11.5 mph 19.6 mph N/A   Mostly Cloudy
4:35 PM 94.1 °F 103.1 °F 73.0 °F 50% 29.95 in 10.0 mi South 11.5 mph 17.3 mph N/A   Scattered Clouds
4:55 PM 93.9 °F 102.7 °F 72.7 °F 50% 29.94 in 10.0 mi South 10.4 mph 18.4 mph N/A   Scattered Clouds
5:15 PM 94.1 °F 102.5 °F 72.5 °F 49% 29.94 in 10.0 mi SSE 10.4 mph 17.3 mph N/A   Scattered Clouds
5:35 PM 93.6 °F 102.5 °F 72.9 °F 51% 29.94 in 10.0 mi SSE 12.7 mph - N/A   Scattered Clouds
5:55 PM 92.3 °F 101.5 °F 73.2 °F 54% 29.95 in 10.0 mi SSE 12.7 mph - N/A   Clear
6:15 PM 91.4 °F 100.7 °F 73.6 °F 56% 29.94 in 10.0 mi SSE 13.8 mph - N/A   Clear
6:35 PM 90.5 °F 98.6 °F 72.9 °F 56% 29.94 in 10.0 mi SSE 11.5 mph - N/A   Clear
6:55 PM 89.6 °F 98.7 °F 73.9 °F 60% 29.95 in 10.0 mi SSE 11.5 mph - N/A   Clear
7:15 PM 88.5 °F 97.8 °F 74.3 °F 63% 29.95 in 10.0 mi SSE 12.7 mph - N/A   Clear
7:35 PM 87.4 °F 96.7 °F 74.8 °F 66% 29.96 in 10.0 mi SSE 11.5 mph - N/A   Clear
7:55 PM 86.2 °F 95.5 °F 75.2 °F 70% 29.96 in 10.0 mi South 8.1 mph - N/A   Clear
8:15 PM 85.1 °F 93.7 °F 75.2 °F 72% 29.96 in 10.0 mi SSE 9.2 mph - N/A   Clear
8:35 PM 83.8 °F 92.1 °F 75.6 °F 76% 29.97 in 10.0 mi SSE 5.8 mph - N/A   Clear
8:55 PM 82.9 °F 90.8 °F 75.7 °F 79% 29.97 in 10.0 mi SSE 5.8 mph - N/A   Clear
9:15 PM 81.9 °F 88.9 °F 75.7 °F 82% 29.98 in 10.0 mi SE 4.6 mph - N/A   Clear
9:35 PM 81.1 °F 87.6 °F 75.9 °F 84% 29.98 in 10.0 mi SE 4.6 mph - N/A   Clear
9:55 PM 80.4 °F 86.3 °F 76.1 °F 87% 29.98 in 10.0 mi SE 5.8 mph - N/A   Clear
10:15 PM 79.9 °F - 76.1 °F 88% 29.98 in 10.0 mi SE 5.8 mph - N/A   Clear
10:35 PM 79.7 °F - 76.8 °F 91% 29.99 in 10.0 mi SSE 3.5 mph - N/A   Clear
10:55 PM 79.2 °F - 79.2 °F 100% 30.00 in 10.0 mi SE 4.6 mph - N/A   Clear
11:15 PM 78.8 °F - 78.8 °F 100% 29.98 in 10.0 mi SE 4.6 mph - N/A   Clear
11:35 PM 78.8 °F - 78.8 °F 100% 29.99 in 10.0 mi SE 3.5 mph - N/A   Clear
11:55 PM 78.8 °F - 78.8 °F 100% 30.00 in 10.0 mi Calm Calm - N/A   Scattered Clouds